Skip Navigation Links weather.gov 
NOAA logo-Select to go to the NOAA homepage NDBC Title GraphicClick to go to NDBC home page   Select to go to the NWS homepage
Home About Us Contact Us
 
 
    
    Station List

 Data Access
    Mobile Access
    Classic Maps
         Recent
         DART®
    Obs Search
    Ship Obs Report
    BuoyCAMs
    TAO
    DODS
    OceanSITES
    HF Radar
    OSMC
    Dial-A-Buoy
    RSS Feeds Image indicating link to RSS feed access page
    Web Widget
    Web Data Guide
    Maintenance Schedule
    Station Status Report

 Program Info
    TAO
    DART®
    IOOS®

 Publications
    NDBC PEA
    NDBC FONSI
    NDBC DQC Handbook

 Visitor Information
 
USA.gov is the U.S. government's official web portal to all federal, state and local government web resources and services.

Station BLTM3 - 8447387 - Borden Flats Light at Fall River, MA Image indicating link to RSS feed of recent meteorological observations for station BLTM3

Owned and maintained by NOAA's National Ocean Service
C-MAN Station
41.704 N 71.174 W (41°42'16" N 71°10'28" W)

Site elevation: 2.1 m above mean sea level
Air temp height: 2.7 m above site elevation
Anemometer height: 16.2 m above site elevation

Latest NWS Marine Forecast

Search And Rescue (SAR) Data

Meteorological Observations from Nearby Stations and Ships Image indicating link to RSS feed of recent meteorological observations near station BLTM3

Regional HF Radar Surface Current Observations

Large icon indicates selected station.
yellow diamond Stations with recent data
red diamond Stations with no data in last 8 hours
     (24 hours for tsunami stations)


Conditions at BLTM3 as of
(2:00 am EST)
0700 GMT on 02/29/2020:
     

Click on the graph icon in the table below to see a time series plot of the last five days of that observation.

5-day plot - Wind Direction Wind Direction (WDIR): WSW ( 250 deg true )
5-day plot - Wind Speed Wind Speed (WSPD): 16 kts
5-day plot - Wind Gust Wind Gust (GST): 19 kts
5-day plot - Atmospheric Pressure Atmospheric Pressure (PRES): 29.79 in
5-day plot - Pressure Tendency Pressure Tendency (PTDY): -0.03 in ( Falling )
5-day plot - Air Temperature Air Temperature (ATMP): 34.3 °F
5-day plot - Wind Chill Wind Chill (CHILL): 23.5 °F
5-day plot - Wind Speed at 10 Meters Wind Speed at 10 meters (WSPD10M): 16 kts
5-day plot - Wind Speed at 10 Meters Wind Speed at 20 meters (WSPD20M): 17 kts
5-day plot - Wind Speed, Wind Gust and Atmospheric Pressure Combined plot of Wind Speed, Gust, and Air Pressure
NOS Water Level Observation Network Water Level
Previous observations
5-day plot - Wind Direction 5-day plot - Wind Speed 5-day plot - Wind Gust 5-day plot - Wave Height 5-day plot - Dominant Wave Period 5-day plot - Average Period 5-day plot - Mean Wave Direction 5-day plot - Atmospheric Pressure 5-day plot - Pressure Tendency 5-day plot - Air Temperature 5-day plot - Water Temperature 5-day plot - Dew Point 5-day plot - Salinity 5-day plot - Visibility 5-day plot - Tide (above MLLW)
MM DD TIME
(EST)
WDIR WSPD
kts
GST
kts
WVHT
ft
DPD
sec
APD
sec
MWD PRES
in
PTDY
in
ATMP
°F
WTMP
°F
DEWP
°F
SAL
psu
VIS
nmi
TIDE
ft
0229 1:54 amWSW 17 21----29.79- 34.5-----
0229 1:48 amWSW 16 20----29.79- 34.5-----
0229 1:42 amWSW 16 19----29.79- 34.7-----
0229 1:36 amWSW 18 21----29.79- 34.7-----
0229 1:30 amWSW 15 18----29.80- 35.1-----
0229 1:24 amWSW 15 19----29.80- 35.2-----
0229 1:18 amWSW 14 18----29.80- 35.2-----
0229 1:12 amWSW 12 14----29.80- 35.2-----
0229 1:06 amWSW 11 13----29.80- 35.2-----
0229 1:00 amWSW 10 13----29.80-0.03 35.2-----
022912:54 am SW 6 8----29.80- 34.2-----
022912:48 amSSW 7 9----29.81- 34.2-----
022912:42 amSSW 6 8----29.81- 34.0-----
022912:36 am S 5 7----29.81- 33.6-----
022912:30 amSSW 5 6----29.81- 33.4-----
022912:24 amSSW 4 5----29.81- 33.4-----
022912:18 amSSW 5 6----29.81- 33.4-----
022912:12 am S 5 6----29.81- 33.4-----
022912:06 am S 5 7----29.81- 33.6-----
022912:00 amSSW 5 6----29.81-0.02 33.6-----
022811:54 pm S 5 6----29.82- 33.6-----
022811:48 pmSSW 5 6----29.82- 33.6-----
022811:42 pmSSW 5 6----29.82- 33.8-----
022811:36 pm S 4 5----29.82- 33.8-----
022811:30 pmSSW 3 5----29.82- 34.5-----
022811:24 pmWSW 5 7----29.82- 34.7-----
022811:18 pmWSW 5 6----29.82- 34.7-----
022811:12 pmWSW 5 6----29.83- 34.3-----
022811:06 pm W 2 4----29.83- 34.0-----
022811:00 pm W 3 4----29.83+0.02 33.8-----
022810:54 pm W 3 4----29.83- 33.8-----
022810:48 pmWNW 3 4----29.83- 33.6-----
022810:42 pmWNW 4 5----29.83- 34.0-----
022810:36 pm W 4 6----29.83- 34.5-----
022810:30 pm W 4 5----29.83- 34.5-----
022810:24 pm W 4 5----29.83- 34.5-----
022810:18 pm W 5 6----29.83- 34.3-----
022810:12 pm W 4 5----29.83- 34.2-----
022810:06 pm W 4 6----29.83- 34.2-----
022810:00 pm W 4 5----29.83+0.04 34.2-----
0228 9:54 pmWNW 3 4----29.83- 34.0-----
0228 9:48 pm NW 4 5----29.83- 34.0-----
0228 9:42 pmWNW 4 6----29.83- 34.3-----
0228 9:36 pmWNW 5 6----29.83- 34.3-----
0228 9:30 pmWNW 5 7----29.83- 34.5-----
0228 9:24 pmWNW 6 8----29.83- 34.7-----
0228 9:18 pmWNW 7 9----29.83- 34.9-----
0228 9:12 pmWNW 8 10----29.83- 34.9-----
0228 9:06 pmWNW 8 10----29.83- 34.9-----
0228 9:00 pmWNW 7 10----29.83+0.07 35.1-----
0228 8:54 pmWNW 7 8----29.83- 35.2-----
0228 8:48 pmWNW 6 8----29.83- 35.6-----
0228 8:42 pmWNW 9 11----29.83- 35.8-----
0228 8:36 pmWNW 9 12----29.82- 36.0-----
0228 8:30 pmWNW 10 12----29.82- 36.0-----
0228 8:24 pmWNW 10 13----29.82- 36.1-----
0228 8:18 pmWNW 11 13----29.82- 36.3-----
0228 8:12 pm W 12 16----29.81- 36.7-----
0228 8:06 pm W 13 16----29.81- 36.9-----
0228 8:00 pm W 12 14----29.81+0.06 37.2-----
0228 7:54 pm W 13 16----29.81- 37.2-----
0228 7:48 pm W 12 15----29.81- 37.4-----
0228 7:42 pm W 13 16----29.80- 37.6-----
0228 7:36 pmWSW 13 15----29.80- 37.6-----
0228 7:30 pmWSW 14 16----29.80- 37.8-----
0228 7:24 pmWSW 15 17----29.80- 37.8-----
0228 7:18 pmWSW 15 17----29.79- 37.8-----
0228 7:12 pmWSW 15 17----29.79- 37.9-----
0228 7:06 pmWSW 16 19----29.79- 37.9-----
0228 7:00 pmWSW 16 19----29.79+0.05 37.9-----
0228 6:54 pmWSW 16 19----29.78- 37.9-----
0228 6:48 pmWSW 16 20----29.78- 38.1-----
0228 6:42 pmWSW 17 19----29.78- 37.9-----
0228 6:36 pmWSW 17 21----29.78- 38.1-----
0228 6:30 pmWSW 16 19----29.78- 37.9-----
0228 6:24 pmWSW 17 19----29.78- 37.9-----
0228 6:00 pmWSW 15 18----29.77+0.03 37.8-----
0228 5:54 pmWSW 16 18----29.77- 37.9-----
0228 5:48 pmWSW 17 19----29.76- 37.8-----
0228 5:42 pmWSW 18 22----29.76- 37.8-----
0228 5:36 pmWSW 16 20----29.76- 37.8-----
0228 5:30 pmWSW 18 24----29.76- 37.8-----
0228 5:24 pmWSW 21 26----29.75- 37.8-----
0228 5:18 pmWSW 20 25----29.75-------
0228 5:12 pm SW 24 29----29.75- 37.9-----
0228 5:06 pmWSW 21 25----29.75- 37.9-----
0228 5:00 pmWSW 20 24----29.75+0.02 37.8-----
0228 4:54 pmWSW 22 26----29.75- 37.8-----
0228 4:48 pmWSW 18 23----29.75- 37.8-----
0228 4:42 pmWSW 18 23----29.75- 37.8-----
0228 4:36 pm SW 24 27----29.74- 37.6-----
0228 4:30 pmWSW 19 24----29.75- 37.6-----
0228 4:24 pmWSW 21 25----29.74- 37.4-----
0228 4:18 pmWSW 19 23----29.75- 37.4-----
0228 4:12 pmWSW 20 23----29.74- 37.4-----
0228 4:06 pm SW 20 25----29.74- 37.2-----
0228 4:00 pmWSW 22 27----29.74+0.00 37.2-----
0228 3:54 pmWSW 20 24----29.74- 36.9-----
0228 3:48 pmWSW 21 25----29.74- 37.0-----
0228 3:42 pmWSW 17 22----29.75- 36.9-----
0228 3:36 pmWSW 22 25----29.74- 36.9-----
0228 3:30 pm SW 19 22----29.74- 36.7-----
0228 3:24 pmWSW 25 28----29.74- 36.5-----
0228 3:18 pmWSW 19 22----29.74- 36.9-----
0228 3:12 pmWSW 20 24----29.74- 36.7-----
0228 3:06 pmWSW 20 26----29.74- 36.9-----
0228 3:00 pm SW 21 25----29.73-0.03 36.5-----
0228 2:54 pm SW 19 23----29.74- 36.5-----
0228 2:48 pm SW 20 26----29.73- 36.7-----
0228 2:42 pm SW 23 28----29.73- 36.5-----
0228 2:36 pm SW 20 24----29.73- 36.3-----
0228 2:30 pmWSW 19 23----29.73- 36.3-----
0228 2:24 pm SW 20 23----29.73- 36.0-----
0228 2:18 pm SW 22 26----29.73- 36.3-----
0228 2:12 pm SW 22 26----29.73- 35.8-----
0228 2:06 pm SW 19 25----29.73- 36.1-----
0228 2:00 pmSSW 21 28----29.73-0.05 36.0-----
0228 1:54 pm SW 19 23----29.73- 35.6-----
0228 1:48 pmSSW 20 25----29.73- 35.6-----
0228 1:42 pm SW 18 22----29.73- 35.6-----
0228 1:36 pm SW 20 22----29.73- 35.2-----
0228 1:30 pmSSW 19 21----29.73- 35.4-----
0228 1:24 pm SW 18 21----29.73- 35.2-----
0228 1:18 pmWSW 12 21----29.74- 35.2-----
0228 1:12 pm SW 16 20----29.74- 35.2-----
0228 1:06 pmWSW 16 20----29.74- 35.1-----
0228 1:00 pm W 18 21----29.74-0.05 35.1-----
022812:54 pmWSW 19 22----29.74- 34.9-----
022812:48 pmWSW 19 23----29.74- 34.9-----
022812:42 pmWSW 19 25----29.75- 34.7-----
022812:36 pmWSW 14 18----29.75- 34.5-----
022812:30 pm W 17 19----29.75- 34.3-----
022812:24 pmWSW 17 22----29.75- 34.3-----
022812:18 pmWSW 19 22----29.75- 34.2-----
022812:12 pmWSW 18 25----29.75- 34.3-----
022812:06 pm SW 17 20----29.76- 34.0-----
022812:00 pm SW 18 21----29.76-0.03 33.8-----
022811:54 am SW 16 20----29.77- 33.4-----
022811:48 amWSW 17 22----29.77- 34.0-----
022811:42 am W 16 30----29.77- 33.6-----
022811:36 am W 18 23----29.77- 33.4-----
022811:30 am W 20 24----29.77- 33.6-----
022811:24 amWSW 16 22----29.77- 33.6-----
022811:18 amWSW 16 20----29.77- 33.4-----
022811:12 am SW 15 20----29.78- 32.9-----
022811:06 amWSW 19 24----29.78- 33.3-----
022811:00 amWSW 17 22----29.78-0.01 33.4-----
022810:54 amWSW 14 20----29.78- 33.1-----
022810:48 amWSW 19 23----29.78- 32.7-----
022810:42 amWSW 20 24----29.78- 32.7-----
022810:36 amWSW 21 27----29.78- 32.4-----
022810:30 am W 20 24----29.78- 32.4-----
022810:24 amWSW 21 26----29.78- 32.5-----
022810:18 amWSW 22 25----29.78- 32.0-----
022810:12 amWSW 23 26----29.78- 32.2-----
022810:06 amWSW 24 28----29.78- 31.8-----
022810:00 amWSW 24 28----29.78+0.01 32.2-----
0228 9:54 amWSW 24 29----29.79- 32.2-----
0228 9:48 amWSW 22 29----29.79- 32.4-----
0228 9:42 amWSW 24 28----29.79- 32.0-----
0228 9:36 amWSW 22 25----29.79- 32.0-----
0228 9:30 amWSW 24 28----29.79- 32.0-----
0228 9:24 amWSW 22 26----29.79- 31.8-----
0228 9:18 amWSW 23 30----29.79-------
0228 9:12 am W 24 28----29.79- 31.6-----
0228 9:06 amWSW 23 26----29.79- 32.0-----
0228 9:00 am W 24 28----29.79+0.03 31.6-----
0228 8:54 am W 28 34----29.79- 31.5-----
0228 8:48 amWSW 24 28----29.80- 31.6-----
0228 8:42 amWSW 25 31----29.79- 31.5-----
0228 8:36 amWSW 25 30----29.80- 31.3-----
0228 8:30 am W 26 32----29.79- 31.3-----
0228 8:24 amWSW 25 31----29.80- 31.3-----
0228 8:18 amWSW 24 31----29.80- 31.1-----
0228 8:12 amWSW 23 28----29.80- 30.9-----
0228 8:06 am W 21 24----29.80- 31.3-----
0228 8:00 amWSW 24 29----29.79+0.04 31.3-----
0228 7:54 amWSW 23 30----29.79- 30.9-----
0228 7:48 amWSW 22 28----29.79- 31.1-----
0228 7:42 amWSW 20 25----29.79- 31.5-----
0228 7:36 amWSW 19 24----29.79- 31.1-----
0228 7:30 amWSW 22 26----29.79- 31.3-----
0228 7:24 amWSW 21 25----29.78- 31.3-----
0228 7:18 am W 23 27----29.78- 31.5-----
0228 7:12 amWSW 24 30----29.78- 31.3-----
0228 7:06 amWSW 23 30----29.78- 31.3-----
0228 7:00 amWSW 23 28----29.78+0.04 31.1-----
0228 6:54 amWSW 23 29----29.77- 31.3-----
0228 6:48 amWSW 24 28----29.77- 31.3-----
0228 6:42 amWSW 22 27----29.77- 31.3-----
0228 6:36 amWSW 22 27----29.77- 31.3-----
0228 6:30 amWSW 21 28----29.76- 31.5-----
0228 6:24 am SW 20 25----29.76- 31.5-----
0228 6:18 amWSW 20 27----29.76- 31.5-----
0228 6:12 amWSW 19 26----29.76- 31.6-----
0228 6:06 amWSW 21 25----29.76- 31.5-----
0228 6:00 amWSW 18 22----29.76+0.04 31.6-----
0228 5:54 amWSW 20 24----29.76- 31.3-----
0228 5:48 amWSW 19 25----29.76- 31.5-----
0228 5:42 amWSW 19 24----29.76- 31.6-----
0228 5:36 amWSW 21 25----29.75- 31.5-----
0228 5:30 amWSW 24 27----29.75- 31.6-----
0228 5:24 amWSW 21 26----29.75- 31.6-----
0228 5:18 amWSW 21 24----29.75- 31.6-----
0228 5:12 amWSW 20 23----29.75- 31.6-----
0228 5:06 amWSW 21 24----29.75- 31.8-----
0228 5:00 amWSW 22 29----29.75+0.03 31.8-----
0228 4:54 amWSW 21 25----29.75- 31.6-----
0228 4:48 amWSW 22 29----29.75- 31.6-----
0228 4:42 amWSW 24 31----29.75- 31.6-----
0228 4:36 amWSW 23 29----29.75- 31.8-----
0228 4:30 amWSW 24 29----29.75- 32.2-----
0228 4:24 amWSW 23 27----29.74- 31.8-----
0228 4:18 am W 22 29----29.74- 31.8-----
0228 4:12 amWSW 22 28----29.74- 31.8-----
0228 4:06 amWSW 21 25----29.75- 32.2-----
0228 4:00 amWSW 25 30----29.74+0.02 32.4-----
0228 3:54 am W 23 31----29.74- 32.2-----
0228 3:48 amWSW 26 32------------
0228 3:42 amWSW 25 32----29.73- 32.0-----
0228 3:36 amWSW 26 31----29.72- 32.0-----
0228 3:30 amWSW 25 30----29.73- 32.4-----
0228 3:24 amWSW 28 36----29.72- 32.2-----
0228 3:18 amWSW 23 29----29.72- 32.2-----
0228 3:12 amWSW 22 27----29.73- 32.2-----
0228 3:06 amWSW 19 24----29.73- 32.4-----
0228 3:00 amWSW 24 28----29.72+0.02 32.2-----
0228 2:54 amWSW 22 25----29.72- 32.4-----
0228 2:48 amWSW 22 28----29.72- 32.7-----
0228 2:42 am W 19 23----29.72- 32.4-----
0228 2:36 am W 24 29----29.72- 32.2-----
0228 2:30 am W 26 31----29.72- 32.2-----
0228 2:24 am W 24 29----29.72- 32.5-----
0228 2:18 am W 27 33----29.72- 32.2-----
0228 2:12 am W 25 29----29.72- 32.4-----
0228 2:06 amWSW 27 33----29.72- 32.5-----
0228 2:00 am W 25 32----29.72+0.05 32.7-----
0228 1:54 am W 26 33----29.72- 32.9-----

Description of Measurements

Links which are specific to this station are listed below:

Real Time Data in tabular form for the last forty-five days.

Historical Data & Climatic Summaries for quality controlled data for the current month, previous months, and previous years.